TIME,DELAY(SENSOR),PRES,T(CTD),SAL,OXYGEN,RAWTEMP,T(OPTODE),TCPHASE,FLUOR,BETA(BETA700),BETA(BETA412),BETA(BETA440),CDOM,C(CSC),ED(ED412.40),ED(ED444.00),ED(ED489.70),ED(ED554.30),LU(LU411.80),LU(LU443.40),LU(LU489.60),LU(LU554.10),COMP,TILTX,TILTX(TILTY),CHECK
1381267780,5810,495.8099975585937500,6.9952001571655270,34.1183013916015600,88.5959472656250000,587.8975219726562000,6.9745287895202640,47.7428703308105500,52,104,87,79,76,15250,2147749476,2147427492,2148008082,2147872804,2147624822,2147077101,2148243913,2147197787,2071,3,13,4261
1381267935,5809,482.5899963378906000,7.2225999832153320,34.1062011718750000,98.5021667480468800,580.8145141601562000,7.2023048400878910,46.5518989562988300,52,102,83,79,75,15247,2147748022,2147427611,2148006381,2147872365,2147627428,2147075510,2148240914,2147199552,1044,3,13,26371
1381268050,5809,471.3599853515625000,7.3109002113342285,34.1067008972168000,104.6333007812500000,577.9904174804688000,7.2929940223693850,45.8656883239746100,51,103,88,78,76,15250,2147745627,2147424091,2148007680,2147871113,2147622674,2147073865,2148244086,2147197650,500,4,13,2671
1381268167,5807,460.0100097656250000,7.5058999061584470,34.1002006530761700,111.9238967895507800,571.6840209960938000,7.4952530860900880,45.0275115966796900,51,103,87,80,75,15250,2147745718,2147422710,2148008310,2147872329,2147623314,2147078317,2148241051,2147202084,3149,3,13,20182
1381268282,5809,449.5499877929687500,7.6279997825622560,34.0894012451171900,121.8404006958007800,567.9418945312500000,7.6151008605957030,44.0094490051269500,51,104,88,79,75,15249,2147743259,2147423442,2148005110,2147874395,2147623478,2147073371,2148238308,2147202587,2097,4,13,17670
1381268409,5808,438.3999938964844000,7.8548998832702640,34.0918006896972660,129.1150970458984400,560.6129150390625000,7.8494777679443360,43.2128982543945300,50,103,86,81,76,15247,2147740845,2147426276,2148008091,2147871204,2147621988,2147084653,2148240886,2147202093,3038,4,13,17146
1381268538,5808,427.6799926757812500,8.1317996978759770,34.0936012268066400,133.5606994628906200,552.3447265625000000,8.1133432388305660,42.6751518249511700,51,103,87,80,73,15248,2147743972,2147426102,2148005924,2147871616,2147623405,2147084809,2148235849,2147201161,2736,3,13,20787
1381268677,5807,416.4299926757812500,8.3624000549316400,34.0946998596191400,140.1085052490234400,543.8040161132812000,8.3853092193603520,41.9579582214355500,50,105,86,79,74,15248,2147741942,2147423113,2148006720,2147873801,2147620361,2147084224,2148235803,2147203748,1787,3,13,25240
1381268806,5810,405.1000061035156000,8.7061996459960940,34.1040000915527340,148.4898986816406200,533.1945800781250000,8.7223281860351560,41.0728187561035160,50,105,88,79,73,15247,2147740544,2147424429,2148004918,2147876480,2147621092,2147087149,2148235565,2147198701,953,3,13,18298
1381268921,5807,394.4200134277344000,8.9507999420166020,34.1026000976562500,156.6580047607422000,526.4047851562500000,8.9375505447387700,40.3001289367675800,50,105,89,78,72,15246,2147739712,2147423670,2148004370,2147874797,2147620233,2147088978,2148230473,2147204589,3270,3,13,45142
1381269048,5804,382.7500000000000000,9.1983995437622070,34.1151008605957000,159.1038055419922000,518.5239257812500000,9.1869182586669920,39.9744415283203100,50,105,86,81,72,15248,2147737627,2147424987,2148006034,2147872128,2147616649,2147089472,2148229696,2147206884,2931,3,13,24416
1381269165,5804,372.3099975585937500,9.3402996063232420,34.1179008483886700,161.8963012695312500,513.8366699218750000,9.3350086212158200,39.6795692443847660,50,105,84,80,72,15244,2147737060,2147424960,2148004672,2147873243,2147613065,2147096640,2148231433,2147206683,1833,3,13,15008
1381269292,5806,361.8299865722656000,9.5569000244140620,34.1198005676269500,168.2584075927734400,506.5750122070312500,9.5641250610351560,39.0786781311035160,50,104,87,79,71,15245,2147736502,2147424740,2148007433,2147875721,2147611995,2147090294,2148230290,2147200320,479,3,13,48424
1381269445,5807,350.2300109863281000,9.7617998123168950,34.1241989135742200,173.5558929443359400,500.2426147460937500,9.7636184692382810,38.5855598449707000,50,106,86,78,71,15248,2147739876,2147425590,2148007131,2147873051,2147608338,2147095515,2148231286,2147204251,2825,3,13,51533
1381269596,5808,339.3900146484375000,10.1142997741699220,34.1315002441406250,175.2951965332031200,489.4371032714844000,10.1033802032470700,38.2787895202636700,50,106,84,80,72,15246,2147734774,2147425490,2148012827,2147874761,2147613741,2147099876,2148229915,2147204141,1455,3,13,36500
1381269785,5810,325.6499938964844000,10.6215000152587890,34.1385002136230500,182.0041961669922000,472.7586059570312500,10.6262903213500980,37.5330085754394500,50,105,83,80,68,15245,2147734957,2147425188,2148007533,2147875739,2147612123,2147098459,2148225846,2147202596,1674,3,14,35186
1381269912,5804,314.2600097656250000,10.9860000610351560,34.1517982482910160,193.3417968750000000,461.2709045410156000,10.9854402542114260,36.5943489074707000,49,103,88,79,70,15244,2147733412,2147426587,2148022080,2147871305,2147606692,2147105243,2148227501,2147205110,1226,3,13,49137
1381270029,5806,303.5599975585937500,11.5958995819091800,34.1655998229980500,197.3704071044922000,441.8117980957031000,11.5920295715332030,36.0222892761230500,49,105,87,79,70,15245,2147731730,2147427072,2148028233,2147875145,2147605193,2147107090,2148227949,2147205293,3269,3,13,43926
1381270156,5811,292.5199890136719000,12.1559000015258790,34.1823997497558600,195.9492950439453000,423.8765869140625000,12.1492795944213870,35.8223609924316400,48,104,88,78,67,15241,2147730130,2147435181,2148032082,2147874541,2147600850,2147112722,2148231021,2147204544,1443,3,13,30864
1381270283,5805,281.8500061035156000,12.7252998352050780,34.2359008789062500,203.2239074707031200,405.2556152343750000,12.7261295318603520,35.0813484191894500,48,106,86,80,67,15246,2147728713,2147438884,2148050825,2147876123,2147601115,2147124955,2148238308,2147206710,2659,3,13,40801
1381270424,5807,270.8999938964844000,13.2614002227783200,34.2907981872558600,216.8905944824218800,388.2264099121094000,13.2523002624511720,34.0293998718261700,48,105,82,80,66,15243,2147726326,2147451355,2148080219,2147873828,2147595501,2147134656,2148245796,2147209124,1869,3,14,60189
1381270587,5809,259.9899902343750000,13.4953002929687500,34.2901000976562500,218.0122985839843800,380.3063049316406000,13.4966001510620120,33.8462905883789060,48,103,86,79,67,15242,2147728923,2147462427,2148105517,2147874651,2147596251,2147137673,2148258450,2147210816,1230,2,14,48396
1381270750,5810,249.0800018310547000,14.4434995651245120,34.3711013793945300,207.8805999755859400,348.3619079589844000,14.4796199798583980,33.9334907531738300,49,104,86,79,67,15241,2147724891,2147479478,2148137910,2147876114,2147592192,2147158930,2148271113,2147211446,2196,3,15,57837
1381270901,5809,237.9600067138672000,15.9492998123168950,34.5332984924316400,210.6627960205078000,303.8171997070312500,15.8453598022460940,33.1163597106933600,48,105,89,79,66,15239,2147727213,2147502838,2148193261,2147874340,2147586980,2147178532,2148286747,2147213686,3212,3,15,55667
1381271052,5810,225.1600036621093800,16.8379993438720700,34.6567001342773440,214.5191040039062500,271.0509948730469000,16.8474197387695300,32.4318809509277340,50,103,83,79,65,15234,2147734784,2147554230,2148286171,2147872905,2147583780,2147214326,2148327524,2147216585,2964,3,14,40609
1381271167,5808,213.3600006103515600,17.6795997619628900,34.7653999328613300,214.8036041259765600,243.0556030273437500,17.7026405334472660,32.0226707458496100,49,106,87,79,63,15232,2147744128,2147610560,2148401728,2147875446,2147587483,2147252416,2148377462,2147223634,456,3,14,62180
1381271284,5809,202.1799926757812500,18.6868000030517580,34.9117012023925800,216.2151031494140600,210.6293945312500000,18.6928997039794920,31.4982795715332030,50,105,85,80,64,15226,2147769974,2147712932,2148588736,2147875017,2147592320,2147324525,2148471890,2147235081,2435,3,15,40402
1381271339,5807,197.1699981689453000,19.0247001647949220,34.9603996276855500,216.4868011474609400,198.4174957275390600,19.0659294128417970,31.3173694610595700,54,106,85,79,63,15226,2147787026,2147767405,2148681316,2147873426,2147602989,2147358125,2148513563,2147237110,2702,3,14,4519
1381271394,5807,192.5000000000000000,19.2462005615234380,34.9841003417968750,217.8054962158203000,192.2362976074218800,19.2547798156738280,31.1640300750732420,53,104,85,79,63,15225,2147808100,2147826614,2148789787,2147876754,2147605750,2147396352,2148566866,2147240128,2617,2,14,53439
1381271449,5808,187.9400024414062500,19.4662990570068360,34.9900016784668000,215.6829986572265600,185.7955017089843800,19.4515991210937500,31.1887302398681640,61,111,84,79,61,15214,2147830701,2147897901,2148913353,2147876772,2147611885,2147440832,2148618916,2147246592,2061,3,15,7680
1381271504,5805,183.5500030517578000,19.7320995330810550,35.0293006896972660,215.1690979003906200,176.2857971191406200,19.7423000335693360,31.0877494812011720,63,113,86,80,63,15210,2147864347,2147980315,2149052681,2147875245,2147624201,2147489462,2148678948,2147252845,2288,2,14,56947
1381271584,5808,178.0800018310547000,20.0394992828369140,35.0582008361816400,215.1929931640625000,165.5614013671875000,20.0702705383300780,30.9422893524169920,69,115,88,82,63,15201,2147915922,2148106377,2149261357,2147877138,2147647835,2147563757,2148777965,2147254747,868,2,15,43337
1381271651,5808,174.0800018310547000,20.2702007293701170,35.0709991455078100,214.1511993408203000,159.3200988769531200,20.2612304687500000,30.9138603210449220,68,121,87,84,61,15192,2147968978,2148219675,2149442834,2147875428,2147666176,2147631963,2148863670,2147266432,132,3,15,48832
1381271718,5811,170.3200073242187500,20.3994007110595700,35.0772018432617200,212.2416992187500000,153.9402008056640600,20.4258804321289060,30.9438209533691400,71,120,90,81,61,15190,2148047369,2148386029,2149723995,2147880694,2147699382,2147719286,2148996288,2147274249,417,3,15,31232
1381271785,5805,166.4100036621093800,20.6602993011474600,35.1176986694335940,212.5247039794922000,146.9044036865234400,20.6413097381591800,30.8349704742431640,74,123,86,82,62,15186,2148139812,2148574747,2150010523,2147880182,2147734884,2147820626,2149120804,2147282825,550,2,15,22515
1381271852,5806,162.2100067138672000,20.7052001953125000,35.1318016052246100,215.0366058349609400,144.6549072265625000,20.7102108001709000,30.6717796325683600,75,122,88,83,62,15183,2148256978,2148791972,2150341065,2147884900,2147782326,2147932854,2149269622,2147295780,878,2,15,44560
1381271937,5808,156.8899993896484400,20.8346004486084000,35.1454010009765600,216.4416046142578000,141.0650939941406200,20.8201808929443360,30.5506095886230470,82,125,88,81,62,15182,2148417197,2149054518,2150721828,2147886811,2147841901,2148080402,2149445787,2147312822,1213,2,15,53508
1381272004,5809,153.2899932861328000,20.9008998870849600,35.1557998657226560,216.4875030517578000,138.7496948242187500,20.8911209106445300,30.5173606872558600,84,119,89,82,61,15175,2148061202,2148144795,2149051355,2147877824,2147706614,2147588068,2148679926,2147259081,640,2,15,24852
1381272083,5809,149.1300048828125000,20.9459991455078120,35.1649017333984400,217.5523071289062500,136.6882934570312500,20.9542999267578120,30.4349098205566400,86,119,89,82,60,15171,2148849536,2149769755,2151797833,2147892946,2148011547,2148446747,2149895908,2147349019,3522,2,15,62602
1381272150,5805,145.6000061035156200,21.2423000335693360,35.2204017639160160,219.7050933837890600,127.3123016357421900,21.2417697906494140,30.2009296417236330,98,120,86,82,60,15169,2149152283,2150264585,2152506459,2147901202,2148135808,2148701824,2150211684,2147371236,2823,1,15,61430
1381272231,5809,141.7799987792968800,21.5202007293701170,35.2375984191894500,222.3527984619140600,119.0100021362304700,21.4965095520019530,29.9585990905761720,110,124,89,83,61,15146,2149530313,2150874825,2153348233,2147907126,2148281910,2148963401,2150528009,2147396937,1841,1,15,1141
1381272334,5809,138.0599975585937500,21.9666004180908200,35.2918014526367200,225.4167022705078000,104.8748016357421900,21.9306793212890620,29.6230106353759770,122,123,86,82,58,15144,2149929481,2151461138,2154131565,2147914761,2148432640,2149212653,2150815442,2147422994,3496,2,16,10172
1381272509,5807,134.3099975585937500,22.0452003479003900,35.2965011596679700,230.8067932128906200,101.3720016479492200,22.0383701324462900,29.3164691925048830,127,120,90,83,61,15136,2150428827,2152152950,2154956653,2147926683,2148610514,2149474934,2151078354,2147448100,2336,1,16,39581
1381272649,5811,130.0299987792968800,22.3302993774414060,35.2893981933593750,233.3616027832031200,93.3309478759765600,22.2857303619384770,29.0926494598388670,129,120,87,82,59,15129,2151219849,2153238427,2156206976,2147939227,2148892726,2149875209,2151491584,2147491145,1942,2,15,17604
1381272776,5807,125.8899993896484400,22.5820999145507800,35.3114013671875000,234.5765991210937500,84.4659881591796900,22.5587005615234380,28.9228992462158200,126,119,86,82,62,15120,2151593810,2153550326,2156329563,2147948580,2148993261,2149897206,2151445101,2147495734,2856,1,16,15817
1381272909,5808,121.8799972534179700,22.7063007354736330,35.3152999877929700,236.4129943847656200,79.6758728027343800,22.7063198089599600,28.7772998809814450,124,121,89,83,60,15120,2153744429,2156524059,2159752283,2147991012,2149817609,2151177737,2152824685,2147617325,2488,2,16,22944
1381273012,5809,118.0100021362304700,22.8866996765136720,35.3241996765136700,237.3627929687500000,74.0605087280273400,22.8794803619384770,28.6625099182128900,112,120,90,81,60,15120,2155638180,2158813897,2161970889,2148024941,2150584301,2152205723,2153788306,2147714230,2413,2,15,4610
1381273127,5810,114.1600036621093800,23.2453002929687500,35.3442993164062500,238.4703979492187500,62.7957687377929700,23.2272396087646500,28.4705600738525400,105,121,91,84,58,15115,2158216722,2161906157,2164941824,2148067318,2151696630,2153686281,2155107446,2147835812,692,1,16,11191
1381273247,5809,109.8099975585937500,23.3917007446289060,35.3527984619140600,240.7210998535156200,56.8405189514160160,23.4113101959228500,28.2942600250244140,92,126,90,84,57,15108,2161780260,2165837750,2168393682,2148140013,2153381138,2155788955,2156897618,2148001554,18,2,15,51527
1381273338,5803,105.7799987792968800,23.7716999053955080,35.3750000000000000,244.6766052246093800,45.7375602722168000,23.7548999786376950,27.9804801940917970,82,127,92,84,57,15108,2165561088,2170119040,2172275328,2148228050,2155445504,2158347840,2158987218,2148194971,731,2,15,35529
1381273441,5809,101.3600006103515600,23.8754997253417970,35.3785018920898440,246.3119049072265600,41.4476394653320300,23.8878097534179700,27.8559799194335940,80,128,90,83,57,15097,2169894089,2174574674,2176126573,2148336795,2157924827,2161289142,2161320118,2148408009,3457,1,15,25220
1381273498,5812,98.9000015258789000,24.0788993835449220,35.3848991394043000,247.2033996582031200,36.2722892761230500,24.0482692718505860,27.7535896301269530,80,126,90,84,59,15103,2172405193,2177213476,2178406436,2148427657,2159409892,2162982464,2162580022,2148524480,2814,2,16,4015
1381273553,5807,97.0400009155273400,24.2234992980957030,35.3777008056640600,247.7669982910156200,31.5032196044921880,24.1962604522705080,27.6704807281494140,77,128,92,85,56,15102,2174388397,2179292205,2180337993,2148493120,2160614518,2164397878,2163686299,2148623634,2935,1,16,5936
1381273620,5809,95.5599975585937500,24.2598991394042970,35.3632011413574200,246.8056945800781200,29.7265605926513670,24.2514190673828120,27.6901702880859380,76,127,92,84,56,15107,2176440438,2181435693,2182277805,2148546203,2161888393,2165927597,2164861668,2148730157,209,1,16,41112
1381273687,5809,94.6600036621093800,24.3108997344970700,35.3620986938476560,245.7794036865234400,28.2609901428222660,24.2969303131103500,27.7166404724121100,76,125,90,86,58,15098,2177832329,2182860681,2183574738,2148593526,2162714441,2166926756,2165624749,2148795318,3422,1,16,49626
1381273832,5807,92.1800003051757800,24.4305992126464840,35.3741989135742200,246.1943969726562500,24.3215694427490230,24.4193191528320300,27.6501808166503900,72,127,91,86,56,15093,2182054006,2186987721,2187135963,2148750336,2165415451,2169973878,2167845906,2149004845,3157,1,16,22969
1381273899,5809,89.8499984741211000,24.5501003265380860,35.3841018676757800,246.4965972900390600,20.2119197845459000,24.5470905303955080,27.5865192413330080,72,128,91,85,57,15085,2186192466,2190984118,2190478116,2148888265,2168204187,2173094500,2170103433,2149211072,3116,1,16,2564
1381273954,5807,88.0299987792968800,24.8344001770019530,35.3914985656738300,248.9199981689453000,11.9325199127197270,24.8047790527343750,27.3812904357910160,71,128,90,86,58,15086,2188602688,2193138230,2192220736,2149009993,2170016082,2175053888,2172016109,2149309129,3012,1,16,59800
1381274021,5808,86.4199981689453100,24.8446006774902340,35.3941993713378900,250.5632019042968800,10.7782201766967770,24.8407306671142580,27.2972908020019530,72,127,92,86,57,15085,2192489883,2197093485,2195747035,2149153435,2172476827,2177597860,2173216374,2149506578,2971,1,16,10700
1381274141,5808,82.9300003051757800,24.9776992797851560,35.3937988281250000,250.2725067138672000,4.6444678306579590,25.0319309234619140,27.2348995208740230,70,127,92,85,57,15079,2202059830,2206094738,2203609042,2149583314,2179588864,2185152393,2178524196,2150019209,293,1,16,2515
1381274196,5807,80.9499969482421900,25.2194004058837900,35.4011001586914060,250.7673034667968800,0.0981509685516357,25.1737804412841800,27.1587600708007800,68,130,91,87,55,15075,2206485970,2210026276,2206700626,2149777280,2183163547,2188674724,2180783881,2150237997,275,1,16,15099
1381274263,5806,79.1699981689453100,25.4636001586914060,35.4040985107421900,250.3930969238281200,-8.0642127990722660,25.4287605285644530,27.0753593444824220,68,132,93,86,56,15072,2212820681,2215985709,2211578907,2150049965,2187904822,2193275858,2183645778,2150508681,655,1,16,6529
1381274366,5809,78.0400009155273400,26.1058998107910160,35.4310989379882800,249.1329956054687500,-23.6695308685302730,25.9174003601074220,26.9395694732666000,70,130,93,86,57,15059,2215306395,2218017097,2212600566,2150084553,2190425938,2195432000,2184703899,2150615396,1007,2,16,15936
1381274691,5810,76.5699996948242200,26.5482006072998050,35.4528007507324200,243.8905944824218800,-43.6070594787597660,26.5440101623535160,26.9219303131103500,68,128,94,86,54,15061,2219374418,2221490596,2215806052,2150409481,2194150930,2198894802,2186960932,2150849298,354,1,16,52743
1381274788,5807,73.8000030517578100,26.8960990905761720,35.4501991271972660,241.8831024169922000,-53.6230812072753900,26.8598403930664060,26.8875293731689450,65,128,94,88,57,15056,2228335936,2230146157,2223127232,2151025334,2202500105,2207062930,2192383469,2151397056,885,0,16,4098
1381274843,5810,71.9700012207031200,26.9703998565673830,35.4519996643066400,241.1647949218750000,-56.5157814025878900,26.9511909484863280,26.8836097717285160,65,134,93,88,56,15049,2232250532,2233793142,2226136640,2151309988,2206662720,2211118381,2195087040,2151679725,1128,1,16,33042
1381274922,5804,70.5500030517578100,27.0305004119873050,35.4575996398925800,240.6000976562500000,-58.7302703857421900,27.0211601257324220,26.8813896179199220,64,129,91,87,55,15060,2237083200,2238214272,2230493650,2151709531,2210598857,2214748690,2197420470,2151928923,470,1,16,59862
1381275090,5806,68.1699981689453100,27.1695995330810550,35.4614982604980500,238.9031066894531200,-63.3388404846191400,27.1669006347656250,26.8998908996582030,63,129,94,85,55,15053,2249578121,2250131748,2241110921,2152644736,2222590893,2225877787,2204546450,2152645568,3430,0,16,27272
1381275157,5806,66.2699966430664000,27.4428997039794920,35.4614982604980500,236.8327941894531200,-70.7886810302734400,27.4028301239013670,26.9009304046630860,63,129,91,86,56,15042,2254555273,2254267382,2244200612,2153143460,2230097179,2232430107,2208372205,2153053760,3125,1,16,32401
1381275236,5807,64.2600021362304700,27.6378993988037100,35.4949989318847660,234.2516937255859400,-78.3499526977539000,27.6427192687988280,26.9240894317626950,62,130,88,87,53,15048,2260294820,2259418093,2247604233,2153798665,2239185371,2239987968,2212819721,2153548013,2359,0,16,43745
1381275315,5808,62.2500000000000000,27.7579002380371100,35.5068016052246100,231.6204071044922000,-81.6141128540039000,27.7464199066162100,27.0029201507568360,62,127,89,85,56,15042,2272941074,2272905307,2260367643,2155062363,2250769654,2251075126,2219837440,2154417755,1701,0,17,11419
1381275399,5808,59.3199996948242200,27.8190994262695300,35.5201988220214840,229.7857971191406200,-83.7119598388671900,27.8131103515625000,27.0608100891113280,62,127,94,86,55,15052,2283705389,2282957760,2269328576,2156766656,2263883876,2262389586,2226991981,2155332571,1980,0,17,43534
1381275454,5817,56.4900016784668000,27.8852996826171880,35.4389991760253900,228.5487060546875000,-85.9123764038086000,27.8831100463867200,27.0907402038574220,61,125,93,86,54,15055,2298658779,2298535158,2284657097,2159207186,2279114514,2275740626,2235093147,2156416009,1787,0,17,15657
1381275509,5808,54.0699996948242200,27.8978004455566400,35.2181015014648440,226.1311035156250000,-86.4484786987304700,27.9001598358154300,27.1961002349853500,56,119,90,85,54,15074,2297809618,2296494628,2283189979,2160011693,2282444964,2278469366,2236968466,2156777837,1184,1,17,10500
1381275761,5809,52.5400009155273440,27.8964004516601560,35.2052993774414060,223.4882965087890600,-86.6253967285156200,27.9057903289794920,27.3177604675292970,54,118,88,82,52,15094,2303182875,2300739346,2286979053,2161017334,2297064502,2289982198,2243150180,2157413312,3047,1,17,10008
1381275876,5806,50.3800010681152340,27.8971996307373050,35.2042999267578100,222.9396972656250000,-86.6535263061523400,27.9066905975341800,27.3432197570800780,53,118,89,82,55,15098,2311684187,2310397604,2297098697,2163528438,2316534902,2304881426,2250368640,2158295872,2731,0,17,40160
1381275967,5815,48.0499992370605500,27.8952999114990230,35.2051010131835940,222.7626953125000000,-86.6247177124023400,27.9057693481445300,27.3520698547363280,53,117,87,82,57,15096,2320295533,2318911515,2305281810,2166210112,2339302262,2323840027,2260833179,2159679414,2650,1,16,47584
1381276051,5810,44.7500000000000000,27.8967990875244140,35.2037010192871100,222.6452026367187500,-86.4334335327148400,27.8996791839599600,27.3598098754882800,52,117,87,84,57,15097,2341263488,2341465965,2328512740,2172295744,2372912448,2352695561,2277775104,2162291794,2466,1,17,470
1381276106,5810,41.7400016784668000,27.8962993621826170,35.2033004760742200,222.7648925781250000,-86.3853378295898400,27.8981609344482420,27.3548202514648440,53,116,89,83,56,15091,2348793243,2349120576,2336764873,2177352338,2396493440,2372564672,2289380214,2164131136,2290,1,17,18826
1381276161,5810,38.5000000000000000,27.8964996337890620,35.2030982971191400,222.7682037353515600,-86.3815078735351600,27.8980293273925780,27.3547191619873050,53,118,90,83,53,15095,2358865984,2358805659,2347103067,2184380772,2423160219,2395018413,2302801481,2166743277,2181,1,16,2738
1381276216,5809,35.1500015258789060,27.8964004516601560,35.2029991149902340,222.8529968261718800,-86.4301834106445300,27.8995800018310550,27.3501396179199220,52,115,87,82,59,15091,2382230235,2384068096,2373881938,2194814784,2453823881,2421214811,2318705563,2170490130,2034,1,17,62330
1381276271,5808,31.8099994659423830,27.9001998901367200,35.2027015686035160,222.7975006103515600,-86.5053329467773400,27.9019699096679700,27.3517208099365230,52,117,87,84,54,15090,2399465956,2401087808,2392005842,2206716763,2488532772,2450470573,2336530614,2174425846,1880,1,16,27246
1381276328,5806,28.3500003814697270,27.9025001525878900,35.2027015686035160,222.8699951171875000,-86.5835113525390600,27.9044609069824220,27.3473091125488280,51,115,88,83,55,15087,2412083812,2413383442,2406546432,2222284242,2533278034,2491077970,2363278317,2181493961,1643,1,16,6180